Weather History for K4M9 - March, 2013

Change the Weather History Date:

Wednesday, March 13, 2013

  Actual Average (KARG) Record (KARG)
Temperature  
Mean Temperature 41 °F -  
Max Temperature 50 °F 54 °F 77 °F (2003)
Min Temperature 32 °F 37 °F 30 °F (1998)
Degree Days  
Heating Degree Days 24    
Moisture  
Dew Point 23 °F    
Average Humidity 51    
Maximum Humidity 75    
Minimum Humidity 26    
Precipitation  
Precipitation 0.00 in - - ()
Sea Level Pressure  
Sea Level Pressure 30.38 in    
Wind  
Wind Speed 10 mph (NW)    
Max Wind Speed 16 mph    
Max Gust Speed 22 mph    
Visibility 10 miles    
Events      
Averages and records for this station are not official NWS values.
T = Trace of Precipitation, MM = Missing Value Source: NWS Daily Summary

Daily Weather History Graph

Daily Weather History Graph

Search for Another Location

Airport or City:

Trip Planner

Search our weather history database for the weather conditions in past years. The results will help you decide how hot, cold, wet, or windy it might be!

Date:

Astronomy

Mar. 13, 2013 Rise Set
Actual Time 7:15 AM CDT 7:08 PM CDT
Civil Twilight 6:50 AM CDT 7:34 PM CDT
Nautical Twilight 6:20 AM CDT 8:04 PM CDT
Astronomical Twilight 5:50 AM CDT 8:34 PM CDT
Moon 8:00 AM CDT (3/13) 9:19 PM CDT (3/13)
Length of Visible Light 12h 43m
Length of Day
11h 52m
Waxing Crescent, 4% of the Moon is Illuminated
Mar 13
Waxing Crescent
Mar 19
First Quarter
Mar 27
Full
Apr 2
Last Quarter
Apr 10
New

Hourly Weather History & Observations

Time (CDT) Temp. Windchill Dew Point Humidity Pressure Visibility Wind Dir Wind Speed Gust Speed Precip Events Conditions
12:35 AM 41.0 °F 34.3 °F 24.8 °F 53% 30.27 in 10.0 mi NW 11.5 mph - N/A   Clear
12:55 AM 41.0 °F 33.9 °F 24.8 °F 53% 30.27 in 10.0 mi NW 12.7 mph - N/A   Clear
1:15 AM 41.0 °F 33.9 °F 26.6 °F 57% 30.27 in 10.0 mi WNW 12.7 mph - N/A   Clear
1:35 AM 39.2 °F 31.2 °F 24.8 °F 56% 30.27 in 10.0 mi WNW 13.8 mph - N/A   Clear
1:55 AM 39.2 °F 30.8 °F 26.6 °F 61% 30.28 in 10.0 mi WNW 15.0 mph - N/A   Clear
2:15 AM 37.4 °F 29.3 °F 26.6 °F 65% 30.28 in 10.0 mi WNW 12.7 mph - N/A   Clear
2:55 AM 37.4 °F 29.3 °F 24.8 °F 60% 30.28 in 10.0 mi NW 12.7 mph - N/A   Clear
3:15 AM 37.4 °F 30.3 °F 24.8 °F 60% 30.29 in 10.0 mi NW 10.4 mph 17.3 mph N/A   Clear
3:55 AM 37.4 °F 29.3 °F 24.8 °F 60% 30.29 in 10.0 mi WNW 12.7 mph - N/A   Clear
4:15 AM 35.6 °F 26.2 °F 24.8 °F 65% 30.29 in 10.0 mi NW 15.0 mph 18.4 mph N/A   Clear
4:35 AM 35.6 °F 28.0 °F 23.0 °F 60% 30.29 in 10.0 mi NW 10.4 mph - N/A   Clear
4:55 AM 35.6 °F 28.6 °F 23.0 °F 60% 30.30 in 10.0 mi NW 9.2 mph - N/A   Clear
5:15 AM 33.8 °F 27.7 °F 24.8 °F 70% 30.31 in 10.0 mi NW 6.9 mph - N/A   Clear
5:35 AM 33.8 °F 28.6 °F 23.0 °F 65% 30.31 in 10.0 mi NW 5.8 mph - N/A   Clear
5:55 AM 32.0 °F 24.8 °F 24.8 °F 75% 30.32 in 10.0 mi NW 8.1 mph - N/A   Clear
6:15 AM 32.0 °F 25.6 °F 23.0 °F 69% 30.33 in 10.0 mi NW 6.9 mph - N/A   Clear
6:35 AM 32.0 °F 25.6 °F 23.0 °F 69% 30.34 in 10.0 mi WNW 6.9 mph - N/A   Clear
6:55 AM 32.0 °F 24.2 °F 23.0 °F 69% 30.35 in 10.0 mi NW 9.2 mph - N/A   Clear
7:15 AM 32.0 °F 25.6 °F 24.8 °F 75% 30.36 in 10.0 mi NW 6.9 mph - N/A   Clear
7:35 AM 32.0 °F 25.6 °F 24.8 °F 75% 30.37 in 10.0 mi WNW 6.9 mph - N/A   Clear
8:15 AM 33.8 °F 24.3 °F 23.0 °F 65% 30.39 in 10.0 mi NW 13.8 mph 17.3 mph N/A   Clear
8:35 AM 35.6 °F 28.6 °F 23.0 °F 60% 30.40 in 10.0 mi NW 9.2 mph - N/A   Clear
8:55 AM 35.6 °F 27.5 °F 23.0 °F 60% 30.41 in 10.0 mi NNW 11.5 mph - N/A   Clear
9:15 AM 35.6 °F 27.5 °F 23.0 °F 60% 30.42 in 10.0 mi NW 11.5 mph - N/A   Clear
9:35 AM 37.4 °F 29.8 °F 23.0 °F 56% 30.42 in 10.0 mi WNW 11.5 mph - N/A   Clear
9:55 AM 37.4 °F 29.8 °F 23.0 °F 56% 30.43 in 10.0 mi NNW 11.5 mph - N/A   Clear
10:15 AM 37.4 °F 29.8 °F 21.2 °F 52% 30.43 in 10.0 mi NNW 11.5 mph - N/A   Clear
10:35 AM 39.2 °F 32.5 °F 23.0 °F 52% 30.43 in 10.0 mi NW 10.4 mph - N/A   Clear
10:55 AM 39.2 °F 32.0 °F 23.0 °F 52% 30.44 in 10.0 mi NW 11.5 mph - N/A   Clear
11:15 AM 39.2 °F 32.0 °F 23.0 °F 52% 30.44 in 10.0 mi WNW 11.5 mph - N/A   Clear
11:35 AM 41.0 °F 35.2 °F 23.0 °F 49% 30.44 in 10.0 mi NW 9.2 mph - N/A   Clear
11:55 AM 41.0 °F 34.3 °F 23.0 °F 49% 30.44 in 10.0 mi WNW 11.5 mph - N/A   Clear
12:15 PM 41.0 °F 33.1 °F 21.2 °F 45% 30.44 in 10.0 mi NW 15.0 mph 19.6 mph N/A   Clear
12:35 PM 42.8 °F 38.0 °F 21.2 °F 42% 30.44 in 10.0 mi WNW 8.1 mph 20.7 mph N/A   Clear
12:55 PM 44.6 °F 38.8 °F 21.2 °F 39% 30.43 in 10.0 mi NNW 11.5 mph 18.4 mph N/A   Clear
1:15 PM 44.6 °F 38.4 °F 21.2 °F 39% 30.43 in 10.0 mi WNW 12.7 mph 18.4 mph N/A   Clear
1:35 PM 46.4 °F 40.4 °F 23.0 °F 40% 30.42 in 10.0 mi WNW 13.8 mph 19.6 mph N/A   Clear
1:55 PM 46.4 °F 42.9 °F 19.4 °F 34% 30.41 in 10.0 mi NW 6.9 mph 19.6 mph N/A   Clear
2:15 PM 48.2 °F - 19.4 °F 32% 30.40 in 10.0 mi WNW 11.5 mph 19.6 mph N/A   Clear
2:55 PM 48.2 °F - 19.4 °F 32% 30.40 in 10.0 mi NNW 9.2 mph 16.1 mph N/A   Unknown
3:15 PM 48.2 °F - 19.4 °F 32% 30.39 in 10.0 mi WNW 16.1 mph - N/A   Clear
3:35 PM 48.2 °F - 15.8 °F 27% 30.39 in 10.0 mi NNW 11.5 mph 21.9 mph N/A   Clear
3:55 PM 50.0 °F - 17.6 °F 28% 30.39 in 10.0 mi NNW 15.0 mph 20.7 mph N/A   Clear
4:15 PM 50.0 °F - 15.8 °F 26% 30.39 in 10.0 mi North 11.5 mph - N/A   Clear
4:35 PM 50.0 °F - 17.6 °F 28% 30.38 in 10.0 mi NNW 11.5 mph - N/A   Clear
4:55 PM 50.0 °F - 17.6 °F 28% 30.38 in 10.0 mi NW 11.5 mph - N/A   Clear
5:15 PM 50.0 °F - 15.8 °F 26% 30.38 in 10.0 mi NW 8.1 mph - N/A   Clear
5:35 PM 50.0 °F - 15.8 °F 26% 30.38 in 10.0 mi North 5.8 mph - N/A   Clear
5:55 PM 50.0 °F - 15.8 °F 26% 30.38 in 10.0 mi NW 6.9 mph - N/A   Clear
6:15 PM 48.2 °F - 15.8 °F 27% 30.38 in 10.0 mi North 5.8 mph - N/A   Clear
6:35 PM 48.2 °F - 23.0 °F 37% 30.39 in 10.0 mi NNW 5.8 mph - N/A   Clear
6:55 PM 46.4 °F 45.2 °F 23.0 °F 40% 30.39 in 10.0 mi NNW 3.5 mph - N/A   Clear
7:15 PM 46.4 °F 44.3 °F 21.2 °F 37% 30.39 in 10.0 mi NNE 4.6 mph - N/A   Clear
7:35 PM 44.6 °F 41.4 °F 19.4 °F 37% 30.39 in 10.0 mi NNE 5.8 mph - N/A   Clear
7:55 PM 44.6 °F 42.2 °F 19.4 °F 37% 30.39 in 10.0 mi NNE 4.6 mph - N/A   Clear
8:15 PM 44.6 °F 42.2 °F 23.0 °F 43% 30.39 in 10.0 mi NE 4.6 mph - N/A   Clear
8:35 PM 41.0 °F 38.0 °F 26.6 °F 57% 30.40 in 10.0 mi ENE 4.6 mph - N/A   Clear
8:55 PM 41.0 °F 38.0 °F 26.6 °F 57% 30.40 in 10.0 mi ENE 4.6 mph - N/A   Clear
9:15 PM 41.0 °F 38.0 °F 21.2 °F 45% 30.41 in 10.0 mi NE 4.6 mph - N/A   Clear
9:35 PM 41.0 °F 39.0 °F 24.8 °F 53% 30.41 in 10.0 mi NE 3.5 mph - N/A   Clear
9:55 PM 41.0 °F - 23.0 °F 49% 30.41 in 10.0 mi Calm Calm - N/A   Clear
10:15 PM 37.4 °F - 26.6 °F 65% 30.42 in 10.0 mi Calm Calm - N/A   Clear
10:35 PM 37.4 °F - 28.4 °F 70% 30.42 in 10.0 mi Calm Calm - N/A   Clear
10:55 PM 35.6 °F - 26.6 °F 70% 30.42 in 10.0 mi Calm Calm - N/A   Clear
11:15 PM 37.4 °F - 24.8 °F 60% 30.43 in 10.0 mi Calm Calm - N/A   Clear
11:35 PM 37.4 °F 34.9 °F 24.8 °F 60% 30.43 in 10.0 mi ENE 3.5 mph - N/A   Clear
11:55 PM 35.6 °F 32.8 °F 28.4 °F 75% 30.43 in 10.0 mi East 3.5 mph - N/A   Clear